Location: Unspecified
(0.0000°N, 0.0000°E)
Time: 19:32:47
(UTC+00:00)

IRIDIUM 33 DEB - Visible Passes

Search period start: 14 January 2025 00:00
Search period end: 24 January 2025 00:00
Orbit: 707 x 988 km, 86.4° (Epoch: 14 January)

Date Brightness Start Highest point End Pass type
(mag) Time Alt. Az. Time Alt. Az. Time Alt. Az.
14 Jan ? 18:53:52 10° SSW 18:59:25 52° W 19:05:20 10° NNW visible
15 Jan ? 18:40:56 10° S 18:46:38 63° W 18:52:42 10° N visible
16 Jan ? 18:28:02 10° S 18:33:50 76° W 18:39:59 10° N visible
17 Jan ? 05:33:15 10° NE 05:37:19 23° E 05:41:14 10° SE visible
18 Jan ? 05:20:52 10° NE 05:24:24 19° E 05:27:49 10° SE visible
19 Jan ? 05:08:38 10° NE 05:11:26 15° E 05:14:10 10° ESE visible
20 Jan ? 04:56:48 10° ENE 04:58:26 11° E 05:00:03 10° ESE visible
20 Jan ? 19:22:16 10° WSW 19:24:11 12° W 19:26:09 10° WNW visible
21 Jan ? 19:08:00 10° WSW 19:11:10 15° W 19:14:24 10° WNW visible
22 Jan ? 18:54:09 10° SW 18:58:06 18° W 19:02:09 10° NW visible
23 Jan ? 18:40:28 10° SW 18:45:00 22° W 18:49:40 10° NW visible
